Location: Launay
(47.2429°N, 1.5727°E)
Time: 18:12:47
(UTC+00:00)

COBE Rocket - Pass Details

Date: 19 May 2025
Orbit: 676 x 772 km, 97.1° (Epoch: 22 June)

Event Time Altitude Azimuth Distance (km) Brightness Sun altitude
Rises 21:51:47 0° 16° (NNE) 3,233 7.9 -17.7°
Reaches altitude 10° 21:54:10 10° 21° (NNE) 2,312 7.0 -17.9°
Maximum altitude 21:59:09 52° 98° (E) 962 4.3 -18.3°
Enters shadow 22:01:01 34° 153° (SSE) 1,243 4.5 -18.4°
